Location: Poigny-la-Forêt
(48.6876°N, 1.7701°E)
Time: 02:35:27
(UTC+02:00)

ISS - Pass Details

Date: 24 March 2019
Orbit: 408 x 410 km, 51.6° (Epoch: 23 April)

Event Time Altitude Azimuth Distance (km) Brightness Sun altitude
Rises 21:01:09 0° 249° (WSW) 2,331 0.7 -18.3°
Reaches altitude 10° 21:03:14 10° 250° (WSW) 1,471 -0.4 -18.6°
Maximum altitude 21:06:32 85° 336° (NNW) 415 -3.9 -19.1°
Enters shadow 21:06:50 72° 56° (NE) 435 -3.9 -19.2°
